ZHONGXING-11

Last updated on Mon Jun 22 2026 00:03:04 GMT+0000 (Coordinated Universal Time)

1 39157U 13020A 26172.55204348 -.00000292 00000+0 00000+0 0 9992 2 39157 0.0291 298.5694 0002342 127.6537 140.1548 1.00273194 47948
UTC large
Height (km)
Speed (km/s)
/
Latitude / Longitude
Inclination (degrees)
Orbital Period (minutes)
Azimuth
Elevation
Range (km)
Doppler Factor

Next 0 passes for location: London (51.5072 / 0.1276)

No passes found over London.
ZHONGXING-11